User: anonymous   Login
Location: Unspecified
(0.0000°N, 0.0000°E)
Time: 02:06:07
(UTC+00:00)
Language:

Vanguard 2 - Orbit

View from above orbital plane
View from above orbital plane
View from above satellite
View from above satellite

Ground track
Ground track

The orbit data is extracted from the following two-line orbital elements,

1    11U 59001A   20049.38834235 +.00000247 +00000-0 +11498-3 0  9997
2    11 032.8770 146.1958 1469317 293.6607 051.6700 11.85671333260723
Epoch (UTC): 18 February 2020 09:19:12
Eccentricity: 0.1469317
inclination: 32.8770°
perigee height: 552 km
apogee height: 2939 km
right ascension of ascending node: 146.1958°
argument of perigee: 293.6607°
revolutions per day: 11.85671333
mean anomaly at epoch: 51.6700°
orbit number at epoch: 26072

The dashed part of the orbit path shows where the satellite is in the earth's shadow,  

DLR